SPACEBEE-142 (52401 NORAD) Tracking and Keplerian Element Data

This shows tracking and keplerian element data for the satellite.

Feedback or suggestion? Click here.




ElementValue
Catalog52401
NameSPACEBEE-142
Epoch Orbit812
Epoch Day166.95802923
Epoch Year2022
RAAN251.8901
Inclination97.4503
Eccentricity0.0009786
Argument of Perigee169.7675
Mean Anonmoly190.3757
Mean Motion15.13412344
Decay Rate0.00010123
L11 52401U 22047H 22166.95802923 .00010123 00000+0 56947-3 0 9992
L22 52401 97.4503 251.8901 0009786 169.7675 190.3757 15.13412344 8120

Live tracking and technical data element details for SPACEBEE-142 (NORAD 52401). SPACEBEE-142 can be tracked NOW for your location showing map with azimuth and elevation plus other details from your city location.

Track the satellite on the map from your city or location and see movement details for azimuth, elevation, latitude, longitude, range, height, and movement on the map or in text.







IsCatalogInMostPopularTable: catalog: 52401, numindb: 1
Update: records affected: 1



GetName: 52401 SPACEBEE-142

Hit Count: updated at: Mon, 27 Jun 2022 05:51:58 GMT